Weather History for South Hill, VA

Change the Weather History Date:

Sunday, May 11, 2014

  Actual Average (KEMV) Record (KEMV)
Temperature  
Mean Temperature 70 °F -  
Max Temperature 84 °F 77 °F 86 °F (1987)
Min Temperature 57 °F 49 °F 35 °F (1986)
Cooling Degree Days 6    
Growing Degree Days 20 (Base 50)    
Moisture  
Dew Point 62 °F    
Average Humidity 78    
Maximum Humidity 100    
Minimum Humidity 39    
Precipitation  
Precipitation 0.00 in - - ()
Sea Level Pressure  
Sea Level Pressure 30.16 in    
Wind  
Wind Speed 1 mph (West)    
Max Wind Speed 6 mph    
Max Gust Speed -    
Visibility 10 miles    
Events      
Averages and records for this station are not official NWS values.
T = Trace of Precipitation, MM = Missing Value Source: NWS Daily Summary

Daily Weather History Graph

Daily Weather History Graph

Search for Another Location

Airport:

Trip Planner

Search our weather history database for the weather conditions in past years. The results will help you decide how hot, cold, wet, or windy it might be!

Date:

Astronomy

May. 11, 2014 Rise Set
Actual Time 6:08 AM EDT 8:09 PM EDT
Civil Twilight 5:39 AM EDT 8:37 PM EDT
Nautical Twilight 5:05 AM EDT 9:12 PM EDT
Astronomical Twilight 4:27 AM EDT 9:50 PM EDT
Moon 5:08 PM EDT (5/11) 4:06 AM EDT (5/11)
Length of Visible Light 14h 58m
Length of Day
14h 01m
Waxing Gibbous, 89% of the Moon is Illuminated
May 11
Waxing Gibbous
May 14
Full
May 21
Last Quarter
May 28
New
Jun 5
First Quarter

Hourly Weather History & Observations

Time (EDT) Temp. Heat Index Dew Point Humidity Pressure Visibility Wind Dir Wind Speed Gust Speed Precip Events Conditions
12:15 AM 62.6 °F - 62.6 °F 100% 30.11 in 10.0 mi SW 3.5 mph - N/A   Scattered Clouds
12:35 AM 62.6 °F - 62.6 °F 100% 30.11 in 10.0 mi SSW 3.5 mph - N/A   Clear
12:55 AM 62.6 °F - 62.6 °F 100% 30.11 in 10.0 mi Calm Calm - N/A   Clear
1:15 AM 60.8 °F - 60.8 °F 100% 30.10 in 10.0 mi Calm Calm - N/A   Clear
1:35 AM 62.6 °F - 60.8 °F 94% 30.11 in 7.0 mi Calm Calm - N/A   Scattered Clouds
1:55 AM 62.6 °F - 62.6 °F 100% 30.11 in 10.0 mi Calm Calm - N/A   Mostly Cloudy
2:15 AM 62.6 °F - 62.6 °F 100% 30.10 in 10.0 mi Calm Calm - N/A   Mostly Cloudy
2:35 AM 60.8 °F - 60.8 °F 100% 30.10 in 10.0 mi Calm Calm - N/A   Scattered Clouds
2:55 AM 60.8 °F - 60.8 °F 100% 30.10 in 7.0 mi Calm Calm - N/A   Clear
3:15 AM 60.8 °F - 60.8 °F 100% 30.10 in 7.0 mi Calm Calm - N/A   Clear
3:35 AM 60.8 °F - 60.8 °F 100% 30.09 in 7.0 mi Calm Calm - N/A   Clear
3:55 AM 60.8 °F - 60.8 °F 100% 30.09 in 10.0 mi Calm Calm - N/A   Clear
4:15 AM 60.8 °F - 60.8 °F 100% 30.09 in 10.0 mi SW 3.5 mph - N/A   Clear
4:35 AM 60.8 °F - 60.8 °F 100% 30.10 in 10.0 mi SW 3.5 mph - N/A   Clear
4:55 AM 60.8 °F - 60.8 °F 100% 30.10 in 10.0 mi Calm Calm - N/A   Clear
5:15 AM 62.6 °F - 62.6 °F 100% 30.10 in 10.0 mi Calm Calm - N/A   Clear
5:35 AM 57.2 °F - 57.2 °F 100% 30.11 in 7.0 mi Calm Calm - N/A   Clear
5:55 AM 59.0 °F - 59.0 °F 100% 30.12 in 10.0 mi Calm Calm - N/A   Clear
6:15 AM 59.0 °F - 59.0 °F 100% 30.13 in 5.0 mi Calm Calm - N/A   Clear
6:35 AM 57.2 °F - 57.2 °F 100% 30.14 in 2.5 mi Calm Calm - N/A   Clear
6:55 AM 60.8 °F - 60.8 °F 100% 30.15 in 5.0 mi Calm Calm - N/A   Clear
7:15 AM 60.8 °F - 60.8 °F 100% 30.15 in 10.0 mi Calm Calm - N/A   Clear
7:35 AM 62.6 °F - 62.6 °F 100% 30.16 in 7.0 mi Calm Calm - N/A   Clear
7:55 AM 64.4 °F - 64.4 °F 100% 30.16 in 10.0 mi WSW 4.6 mph - N/A   Clear
8:15 AM 66.2 °F - 64.4 °F 94% 30.17 in 10.0 mi WSW 5.8 mph - N/A   Clear
8:35 AM 68.0 °F - 66.2 °F 94% 30.18 in 10.0 mi WSW 3.5 mph - N/A   Clear
8:55 AM 68.0 °F - 66.2 °F 94% 30.18 in 10.0 mi WSW 3.5 mph - N/A   Clear
9:15 AM 69.8 °F - 66.2 °F 88% 30.19 in 10.0 mi Calm Calm - N/A   Clear
9:35 AM 71.6 °F - 66.2 °F 83% 30.19 in 10.0 mi Calm Calm - N/A   Clear
9:55 AM 73.4 °F - 66.2 °F 78% 30.19 in 10.0 mi NW 3.5 mph - N/A   Clear
10:15 AM 73.4 °F - 64.4 °F 73% 30.20 in 10.0 mi North 3.5 mph - N/A   Clear
10:35 AM 75.2 °F - 64.4 °F 69% 30.20 in 10.0 mi NNW 3.5 mph - N/A   Clear
10:55 AM 77.0 °F - 64.4 °F 65% 30.20 in 10.0 mi NNW 5.8 mph - N/A   Clear
11:15 AM 78.8 °F - 64.4 °F 61% 30.20 in 10.0 mi NW 3.5 mph - N/A   Clear
11:35 AM 77.0 °F - 62.6 °F 61% 30.21 in 10.0 mi North 4.6 mph - N/A   Clear
11:55 AM 78.8 °F - 62.6 °F 57% 30.21 in 10.0 mi North 4.6 mph - N/A   Clear
12:15 PM 78.8 °F - 60.8 °F 54% 30.21 in 10.0 mi NNE 3.5 mph - N/A   Clear
12:35 PM 78.8 °F - 60.8 °F 54% 30.20 in 10.0 mi Calm Calm - N/A   Clear
12:55 PM 80.6 °F 81.5 °F 60.8 °F 51% 30.19 in 10.0 mi Calm Calm - N/A   Clear
1:15 PM 80.6 °F 81.5 °F 60.8 °F 51% 30.19 in 10.0 mi Calm Calm - N/A   Scattered Clouds
1:35 PM 82.4 °F 82.9 °F 60.8 °F 48% 30.18 in 10.0 mi Calm Calm - N/A   Clear
1:55 PM 82.4 °F 82.9 °F 60.8 °F 48% 30.18 in 10.0 mi Calm Calm - N/A   Scattered Clouds
2:15 PM 82.4 °F 82.9 °F 60.8 °F 48% 30.18 in 10.0 mi Calm Calm - N/A   Clear
2:35 PM 82.4 °F 82.9 °F 60.8 °F 48% 30.17 in 10.0 mi WSW 3.5 mph - N/A   Clear
2:55 PM 82.4 °F 82.0 °F 57.2 °F 42% 30.17 in 10.0 mi Calm Calm - N/A   Scattered Clouds
3:15 PM 82.4 °F 82.5 °F 59.0 °F 45% 30.17 in 10.0 mi Calm Calm - N/A   Clear
3:35 PM 82.4 °F 82.5 °F 59.0 °F 45% 30.17 in 10.0 mi Calm Calm - N/A   Clear
3:55 PM 82.4 °F 82.0 °F 57.2 °F 42% 30.16 in 10.0 mi South 3.5 mph - N/A   Clear
4:15 PM 80.6 °F 80.8 °F 57.2 °F 45% 30.16 in 10.0 mi Calm Calm - N/A   Clear
4:35 PM 80.6 °F 81.8 °F 62.6 °F 54% 30.15 in 10.0 mi Calm Calm - N/A   Clear
4:55 PM 82.4 °F 82.5 °F 59.0 °F 45% 30.16 in 10.0 mi Calm Calm - N/A   Clear
5:15 PM 82.4 °F 82.0 °F 57.2 °F 42% 30.16 in 10.0 mi Calm Calm - N/A   Scattered Clouds
5:35 PM 82.4 °F 82.0 °F 57.2 °F 42% 30.16 in 10.0 mi Calm Calm - N/A   Mostly Cloudy
5:55 PM 84.2 °F 83.5 °F 57.2 °F 40% 30.16 in 10.0 mi NNW 3.5 mph - N/A   Mostly Cloudy
6:15 PM 82.4 °F 81.7 °F 55.4 °F 39% 30.16 in 10.0 mi Calm Calm - N/A   Scattered Clouds
6:35 PM 82.4 °F 82.0 °F 57.2 °F 42% 30.16 in 10.0 mi Calm Calm - N/A   Scattered Clouds
6:55 PM 82.4 °F 82.5 °F 59.0 °F 45% 30.16 in 10.0 mi Calm Calm - N/A   Scattered Clouds
7:15 PM 80.6 °F 81.5 °F 60.8 °F 51% 30.16 in 10.0 mi Calm Calm - N/A   Clear
7:35 PM 78.8 °F - 62.6 °F 57% 30.16 in 10.0 mi Calm Calm - N/A   Clear
7:55 PM 75.2 °F - 64.4 °F 69% 30.17 in 10.0 mi Calm Calm - N/A   Clear
8:15 PM 71.6 °F - 64.4 °F 78% 30.17 in 10.0 mi Calm Calm - N/A   Clear
8:35 PM 71.6 °F - 64.4 °F 78% 30.17 in 10.0 mi Calm Calm - N/A   Clear
8:55 PM 69.8 °F - 64.4 °F 83% 30.17 in 10.0 mi Calm Calm - N/A   Clear
9:15 PM 66.2 °F - 66.2 °F 100% 30.18 in 10.0 mi Calm Calm - N/A   Clear
9:35 PM 66.2 °F - 66.2 °F 100% 30.18 in 10.0 mi Calm Calm - N/A   Clear
9:55 PM 64.4 °F - 64.4 °F 100% 30.19 in 10.0 mi Calm Calm - N/A   Clear
10:15 PM 66.2 °F - 66.2 °F 100% 30.20 in 10.0 mi Calm Calm - N/A   Clear
10:35 PM 64.4 °F - 64.4 °F 100% 30.20 in 10.0 mi Calm Calm - N/A   Clear
10:55 PM 62.6 °F - 62.6 °F 100% 30.20 in 10.0 mi Calm Calm - N/A   Clear
11:15 PM 64.4 °F - 64.4 °F 100% 30.20 in 10.0 mi Calm Calm - N/A   Clear
11:35 PM 62.6 °F - 62.6 °F 100% 30.20 in 10.0 mi Calm Calm - N/A   Clear
11:55 PM 62.6 °F - 62.6 °F 100% 30.20 in 10.0 mi Calm Calm - N/A   Clear